Wind_Speed
10 10 9 9 9 9 9 10 12 13 14 15 16 18 19 19 20 20 21 22 24 25 26 26 26 22 19 18 17 17 21 25 29 32 33 35 37 39 44 50 53 54 55 55 57 58 58 59 60 60 60 61 57 47 45 49 51 51 46 51 59 56 54 54 55 55 53 50 49 45 39 38 40 37 35 32 29 27 27 27 27 24 24 23 21 21
10 10 8 8 8 9 10 11 13 14 16 17 19 21 22 23 24 23 23 24 27 29 29 29 29 25 22 21 19 18 18 20 24 29 32 34 36 38 41 47 52 55 57 57 58 60 60 61 60 60 61 60 57 50 43 43 50 48 40 46 56 55 52 52 53 53 50 47 46 45 40 39 43 41 37 35 31 29 28 29 28 25 24 23 22 22
8 9 9 9 9 10 12 13 15 17 18 20 22 24 25 26 27 26 25 27 29 31 31 31 30 26 24 24 22 21 20 19 20 24 29 33 34 36 39 44 49 54 58 59 61 63 63 63 61 60 61 59 56 53 49 46 47 47 41 42 51 55 53 51 52 50 48 47 45 46 44 41 43 42 40 39 36 32 30 30 28 26 24 24 24 24
7 9 11 12 12 12 13 16 18 18 18 20 21 24 25 25 27 26 25 27 29 30 31 31 29 23 22 24 23 24 24 21 20 21 24 30 34 36 38 41 46 51 55 59 62 65 66 65 63 61 61 59 58 55 52 49 44 43 42 40 46 54 54 52 51 49 48 48 47 48 47 44 42 42 41 40 39 36 32 30 28 25 24 24 25 25
10 11 13 14 14 14 15 17 19 18 18 19 21 23 23 23 23 23 22 24 25 26 26 28 27 21 19 20 21 24 26 24 24 22 21 26 31 36 38 40 43 47 52 56 60 65 67 67 65 64 63 62 62 60 56 50 43 40 41 40 41 48 55 53 49 49 49 49 49 50 50 48 44 40 39 38 37 36 33 30 28 25 25 25 26 24
14 14 13 13 13 14 15 17 18 17 16 17 20 22 21 21 20 20 20 21 22 23 22 24 26 21 17 19 20 21 25 27 27 25 23 25 28 33 37 41 43 45 49 53 56 61 66 68 67 66 66 64 65 67 66 59 50 43 41 42 40 41 50 53 50 51 52 51 51 51 51 51 46 38 35 35 36 36 32 30 29 27 27 26 25 23
14 14 11 10 10 11 12 14 14 15 14 14 17 19 20 21 21 21 22 23 23 23 22 23 26 22 17 18 18 18 22 26 28 27 26 26 28 29 34 40 44 46 48 51 53 56 61 66 68 68 68 67 67 70 73 70 63 52 44 42 41 39 43 48 49 52 53 53 53 49 49 53 49 41 36 34 37 38 34 32 32 29 28 27 25 24
13 13 11 9 9 9 11 13 13 14 14 15 16 18 20 21 22 22 23 24 24 25 24 21 24 24 17 16 16 16 19 24 26 28 28 27 28 29 30 35 41 46 49 51 52 53 57 61 65 68 69 69 70 70 73 71 65 59 49 42 41 42 42 43 45 48 48 50 53 49 49 55 52 44 39 35 37 40 37 36 34 30 29 27 25 25
12 11 11 11 12 13 12 14 15 16 16 17 18 19 20 21 21 22 23 23 24 25 23 19 22 24 17 14 15 13 15 19 24 28 29 29 30 31 31 32 36 43 48 51 52 52 54 57 61 65 68 70 71 70 71 67 61 60 56 48 45 46 45 42 42 45 45 47 52 50 48 52 50 43 40 36 37 40 39 38 35 32 31 28 26 26
9 9 9 9 10 11 13 14 15 16 17 18 19 18 19 19 19 21 22 22 24 23 21 20 22 23 18 13 14 15 15 18 22 28 30 31 33 34 34 33 34 38 44 50 53 53 52 54 58 62 65 69 71 69 69 65 58 59 61 55 50 50 50 46 44 47 48 48 51 50 45 45 44 41 39 37 36 39 41 39 36 34 32 29 28 28
7 7 7 7 7 8 11 13 13 15 18 18 18 16 16 18 18 19 20 21 22 21 20 20 20 23 20 11 10 14 16 20 25 29 32 33 35 36 35 35 35 37 39 44 52 55 54 53 54 59 62 66 69 69 68 65 61 60 62 60 56 54 54 50 47 50 53 53 53 50 46 42 40 41 40 39 38 40 41 40 38 36 34 31 31 30
8 7 7 9 9 8 10 13 15 19 21 20 19 17 15 15 15 15 18 20 21 20 20 19 17 20 19 11 8 13 15 20 27 31 34 35 37 37 37 36 36 37 39 40 45 52 56 55 54 56 58 61 65 68 69 66 64 63 63 62 60 59 57 52 47 49 52 55 55 51 49 46 41 41 41 41 41 41 42 41 38 38 36 34 33 32
8 8 9 10 9 8 9 12 17 21 23 22 21 20 18 18 15 13 14 16 18 19 20 19 16 16 15 11 12 17 19 22 28 32 36 37 38 38 38 38 37 37 39 39 41 46 52 56 56 55 57 57 58 62 67 68 67 65 64 64 63 62 60 53 47 47 47 49 52 51 50 50 46 43 42 41 41 41 43 43 39 38 37 36 35 33
6 7 9 9 7 6 7 9 13 18 20 21 21 20 21 22 21 18 17 16 14 14 16 19 18 15 13 12 13 16 20 24 28 32 35 37 38 38 38 39 38 38 39 41 41 42 46 52 56 56 56 57 57 57 62 68 69 68 66 65 64 63 62 55 47 45 42 42 48 49 49 51 49 47 45 42 41 40 43 44 42 40 39 38 36 34
6 5 7 6 5 6 9 12 15 19 21 22 23 23 23 24 24 24 24 22 19 14 11 14 16 14 13 14 15 17 20 24 28 30 33 34 35 36 37 38 38 39 41 42 43 43 43 46 51 55 57 57 57 57 59 65 69 70 68 67 66 64 62 57 51 48 44 43 48 50 47 48 47 48 47 45 43 43 44 45 44 42 41 40 38 36
6 5 4 4 5 8 12 14 17 20 23 25 26 27 25 24 24 25 24 25 27 21 11 8 11 11 12 14 17 21 22 24 27 28 30 32 33 34 35 37 38 40 42 44 46 45 44 44 45 50 54 57 58 58 59 62 67 70 70 68 68 65 62 57 53 52 47 45 50 52 49 48 47 48 48 46 46 46 47 46 45 46 45 42 40 39
7 6 5 5 8 11 14 15 17 21 24 26 27 27 25 24 24 25 25 25 26 23 17 8 5 7 10 12 17 22 24 25 25 25 26 28 30 33 35 37 40 42 45 46 47 47 46 44 43 45 49 54 58 58 59 60 64 69 71 70 69 67 63 58 53 50 47 46 51 52 51 51 52 52 51 49 47 48 48 47 47 48 47 44 43 41
7 8 8 8 10 13 15 17 20 23 25 26 27 27 25 23 23 25 25 24 22 21 19 12 6 7 10 13 16 20 22 25 25 24 24 25 27 29 33 37 40 42 47 49 49 49 47 44 42 42 45 50 55 58 59 60 62 67 70 70 69 67 64 60 56 52 50 50 51 51 52 53 53 53 52 51 50 51 52 50 47 49 48 46 44 41
8 8 9 10 12 13 15 17 19 22 25 27 28 28 26 23 23 26 25 24 23 21 18 14 8 9 13 16 17 19 21 23 24 24 23 24 26 28 32 35 36 39 44 49 49 49 49 46 42 41 42 46 52 56 59 61 62 65 68 69 70 68 65 63 60 57 54 53 53 52 52 51 49 49 50 51 53 55 58 57 52 50 49 47 46 42
8 8 9 10 11 12 14 15 14 17 21 24 25 27 26 24 25 26 24 22 23 23 20 16 10 10 14 17 19 21 22 23 24 24 25 26 27 30 33 33 33 35 40 46 48 48 49 48 45 41 39 42 49 55 58 61 62 63 65 68 69 69 68 66 64 63 60 57 56 55 53 50 47 47 49 53 57 59 61 60 55 52 51 49 46 43
9 9 9 9 9 11 13 13 13 14 18 21 24 26 27 26 24 22 22 22 24 26 23 19 15 15 17 19 20 22 24 26 27 27 27 28 29 30 33 34 31 31 36 42 45 46 47 48 47 43 38 37 42 51 57 60 62 63 64 66 68 69 70 68 67 68 67 64 62 59 56 52 48 47 50 55 60 62 61 57 51 49 49 48 45 44
10 10 10 10 10 11 11 12 13 15 19 23 26 28 29 28 26 24 25 26 27 26 25 23 22 22 24 25 25 26 27 28 30 31 31 31 30 29 31 33 31 29 32 38 43 45 46 47 47 45 40 35 35 43 53 59 62 63 63 65 67 70 72 71 69 71 73 73 71 65 59 55 52 50 52 55 57 57 56 54 49 46 45 45 45 46
11 10 9 10 10 10 11 12 12 15 19 23 26 27 28 29 29 29 29 28 26 25 23 24 25 26 28 29 29 31 33 33 30 30 32 33 32 29 28 30 31 29 30 35 41 44 44 45 46 45 41 36 32 35 46 56 61 63 64 64 65 68 72 74 72 72 75 78 76 70 65 61 58 56 55 55 54 52 52 52 49 46 44 44 45 49
11 10 9 11 11 11 12 13 14 16 19 21 22 24 25 27 29 30 29 27 27 26 25 26 27 27 28 29 30 34 36 35 33 32 31 29 30 29 27 27 29 30 31 34 39 42 43 43 44 45 42 39 34 32 38 49 57 62 64 64 64 66 71 75 76 74 76 79 75 69 68 66 62 59 58 55 52 49 49 50 49 48 45 43 45 50
10 8 7 9 10 9 9 10 12 16 19 18 20 23 24 25 25 26 26 26 26 26 26 28 27 26 27 30 34 36 33 31 32 33 28 23 24 24 23 25 27 30 32 34 36 39 41 42 42 43 43 40 37 33 34 42 51 58 63 63 63 64 67 74 79 78 76 77 75 72 72 71 64 60 58 54 48 45 46 47 47 47 45 43 45 50
10 9 7 7 7 8 8 10 11 15 17 18 20 22 22 23 23 24 25 25 26 26 27 28 28 27 28 32 36 35 28 26 28 28 22 17 16 15 16 20 24 29 32 34 34 34 37 39 39 40 41 41 39 35 34 38 45 53 60 63 63 62 64 70 78 81 80 78 77 76 76 74 69 64 60 57 52 49 49 49 48 47 45 43 45 51
12 12 11 10 10 10 10 11 14 16 18 19 20 22 23 22 23 24 25 26 27 27 28 28 29 29 30 34 38 35 29 26 26 22 18 16 13 11 12 15 18 20 22 26 28 28 31 35 36 37 39 40 40 38 36 37 41 48 56 61 61 60 61 66 72 78 81 81 80 80 79 76 72 67 62 59 58 56 54 53 52 50 47 45 47 53
14 15 16 14 13 13 12 13 15 18 19 20 20 21 23 22 22 23 24 26 28 28 29 28 28 29 31 34 38 36 30 27 24 21 18 17 14 9 9 10 10 10 11 14 18 21 24 30 33 35 37 39 40 39 38 38 39 44 51 57 60 59 59 63 68 73 77 80 82 82 81 77 73 70 66 61 60 62 60 57 55 53 50 48 48 52
13 14 16 17 15 15 15 15 16 18 19 20 20 20 22 22 22 22 22 25 28 30 31 30 28 29 30 32 35 35 30 26 24 21 18 17 13 8 7 7 6 6 8 11 14 17 21 25 29 32 34 35 37 38 38 38 40 42 47 54 58 58 57 60 65 68 70 75 80 81 80 78 75 74 73 66 62 64 65 60 58 56 53 51 49 50
12 13 15 17 18 18 18 16 17 18 20 21 20 20 23 24 23 23 23 23 25 28 30 30 29 29 28 27 29 32 30 25 23 20 18 16 12 8 7 7 7 7 9 12 14 17 19 21 24 27 29 31 34 36 37 37 39 41 45 50 55 56 56 58 62 64 65 69 74 77 78 78 77 76 75 70 64 64 65 63 61 59 58 56 54 52
12 13 15 17 19 19 19 18 18 18 19 21 21 21 23 24 23 23 23 22 22 24 28 30 29 28 25 22 24 30 30 25 21 18 17 16 13 9 8 9 10 11 12 14 16 18 19 21 23 25 27 30 32 34 36 37 38 39 43 48 53 55 55 56 59 60 60 63 68 70 73 76 75 74 74 71 65 63 64 64 63 62 61 59 57 54
13 14 16 17 19 19 19 19 19 19 19 19 20 20 22 22 22 22 24 25 25 24 26 29 29 28 26 21 22 27 29 27 24 18 14 14 13 11 9 10 12 14 16 18 20 21 23 25 27 28 29 30 31 33 34 36 36 38 41 45 50 54 54 54 56 56 55 58 62 63 65 70 71 70 69 66 62 62 63 62 63 63 62 61 60 58
14 15 17 17 18 19 19 19 19 20 19 18 19 20 21 21 22 23 24 26 27 26 27 29 31 30 29 25 22 22 24 25 26 22 16 13 13 13 13 12 13 15 17 19 22 24 26 29 31 32 33 33 33 33 34 35 35 37 41 44 47 53 55 53 53 54 53 54 57 57 58 63 67 67 67 63 57 58 62 62 62 64 64 63 63 62
16 17 17 17 17 18 18 19 20 21 21 20 20 21 21 21 22 25 26 26 26 25 25 28 29 29 29 27 23 21 22 22 22 21 20 17 13 14 17 17 16 16 18 19 21 23 25 27 29 32 34 35 35 34 33 34 35 36 39 43 45 49 54 54 52 52 52 52 53 52 52 56 60 63 67 68 61 57 59 62 64 65 65 64 65 64
16 17 17 17 16 16 17 19 21 21 22 21 20 20 21 22 23 26 28 28 27 24 22 24 26 25 27 27 25 24 24 23 22 21 20 21 19 15 17 19 19 19 19 19 19 19 20 22 24 26 29 32 35 35 33 34 35 35 38 42 45 47 51 55 54 52 53 53 53 52 50 52 55 58 63 68 67 61 58 59 64 67 66 66 66 66
15 16 16 17 16 16 17 19 19 20 20 20 20 20 21 21 22 24 27 28 27 25 22 23 24 23 23 25 25 24 25 26 26 24 22 22 22 20 19 19 18 18 19 19 17 16 16 18 19 20 21 25 31 33 33 33 34 35 38 41 45 46 48 53 55 54 54 54 54 54 53 51 52 57 61 62 64 64 60 58 62 66 67 68 68 68
13 14 15 16 16 17 17 18 18 18 18 19 21 22 22 22 22 24 26 28 27 26 25 24 23 22 21 22 23 23 24 25 26 25 24 24 23 21 20 21 19 17 18 18 16 15 16 16 15 15 15 18 25 29 31 32 33 35 38 41 44 46 47 50 54 56 56 55 54 55 56 54 52 55 61 62 62 63 60 57 59 65 67 68 68 68
12 13 15 16 17 17 17 18 17 17 17 19 22 24 24 24 25 25 26 27 27 27 26 24 22 21 20 20 21 21 20 22 24 26 26 25 23 21 19 18 19 19 17 17 17 16 15 14 13 11 12 15 20 25 28 31 32 33 37 42 45 46 47 47 49 53 55 56 55 55 57 57 54 53 59 63 63 64 63 59 60 63 65 65 66 67
13 13 14 16 16 16 16 17 17 17 17 19 22 24 24 25 26 25 24 25 26 26 25 23 20 20 20 20 21 22 20 20 22 25 27 26 25 23 20 18 17 19 18 15 16 17 15 14 12 11 11 14 17 21 24 27 30 32 36 43 46 47 47 48 48 49 52 54 56 56 57 59 57 55 57 61 64 66 66 65 63 63 64 63 64 65
12 13 14 14 14 15 16 16 17 17 19 21 22 23 24 26 27 26 23 22 23 23 23 22 20 20 21 21 21 22 22 22 23 25 27 28 28 25 23 21 18 18 19 16 13 16 15 14 13 13 12 14 15 18 21 24 27 30 34 41 46 47 47 47 47 48 49 51 54 56 57 58 60 58 58 61 64 65 67 67 67 66 64 63 63 64
14 14 15 15 15 16 17 16 17 18 20 22 23 23 25 26 25 25 24 24 22 21 21 22 21 21 22 22 21 21 22 23 24 25 26 27 28 28 26 25 22 19 19 18 13 14 16 13 13 13 13 14 16 17 19 22 25 28 31 36 44 48 47 45 45 46 47 49 51 53 55 57 59 59 59 60 64 67 68 69 69 70 68 65 64 63
18 16 16 17 17 17 17 17 18 18 19 21 23 23 24 25 24 23 23 24 23 21 21 22 23 22 22 23 22 21 20 21 22 23 23 24 26 27 27 26 23 19 16 18 15 12 14 13 11 12 12 13 14 16 19 21 23 26 29 33 39 45 48 47 45 45 46 48 50 51 53 55 57 59 59 60 63 68 70 71 71 71 71 69 67 65
20 19 18 18 18 18 18 17 18 19 19 20 22 23 23 23 23 22 21 22 23 22 21 21 22 22 21 21 21 19 18 19 20 22 22 22 23 25 27 26 23 19 15 15 16 12 10 11 11 11 12 12 12 14 17 21 24 26 28 31 35 40 44 47 47 46 46 47 49 50 52 53 55 58 58 59 62 65 69 72 73 72 71 71 69 68
19 20 20 19 18 18 18 18 19 19 19 19 21 22 22 22 23 22 21 21 23 22 21 20 21 21 20 19 19 19 18 17 18 19 21 20 20 21 23 25 24 21 18 13 12 13 10 9 11 11 12 13 13 13 14 17 22 26 28 31 33 36 40 44 47 47 46 46 48 49 51 53 55 57 58 59 61 64 66 70 72 72 71 70 70 69
18 20 19 19 18 17 17 19 20 20 20 20 21 22 22 23 23 23 23 23 24 23 21 19 19 20 19 19 19 19 19 19 18 18 20 21 19 19 21 22 23 22 19 14 10 12 12 9 9 11 13 14 14 14 15 16 18 23 27 31 34 36 38 42 45 48 48 48 49 50 52 54 56 57 57 58 60 62 64 67 69 70 70 69 69 69
18 19 19 19 19 17 17 19 21 21 21 21 21 21 22 23 23 23 24 25 25 24 22 19 18 18 19 19 19 19 19 19 19 18 19 21 19 18 18 19 19 20 20 16 11 8 8 8 8 9 12 15 15 15 16 16 17 19 23 27 32 36 39 41 44 47 49 51 52 52 52 54 57 58 58 59 59 59 61 63 65 66 66 67 67 67
18 19 19 19 19 18 18 20 22 22 21 21 21 22 22 22 22 23 24 25 26 26 24 21 18 18 19 20 20 20 19 19 19 18 18 20 19 17 16 16 16 17 18 18 14 10 7 5 6 8 11 12 13 15 17 19 19 20 21 24 27 32 38 42 44 47 49 51 53 54 54 55 57 59 60 60 59 58 58 60 61 62 63 63 63 63
18 19 20 18 18 19 20 22 23 22 21 21 21 22 23 23 22 23 24 25 26 25 25 24 21 19 19 20 20 20 20 19 19 19 18 19 20 18 16 15 15 14 15 16 16 14 13 10 5 4 6 9 8 9 11 15 20 21 22 23 25 27 31 37 41 45 48 50 51 53 56 57 58 60 61 61 59 57 56 57 58 58 59 59 59 59
18 20 20 19 19 20 22 24 24 23 22 21 21 21 22 22 22 22 23 24 25 25 25 25 24 21 20 19 19 19 20 19 19 19 19 19 19 19 18 17 16 15 14 14 14 14 15 15 12 9 8 9 10 11 10 5 13 20 23 24 25 27 28 30 34 38 42 46 48 50 54 58 59 60 61 60 57 55 54 54 54 55 56 56 56 57
18 20 20 19 19 20 23 24 24 24 22 22 21 22 22 22 21 21 22 22 23 24 23 23 24 23 21 19 18 18 18 18 18 19 19 19 19 19 19 19 19 17 16 16 15 15 15 15 16 15 14 12 10 10 12 10 4 9 16 19 23 28 30 29 30 31 33 36 40 43 47 53 57 58 59 58 55 53 53 53 53 53 54 54 54 56
19 20 20 20 20 21 23 24 24 23 23 22 22 22 22 22 22 21 21 21 21 22 22 21 21 22 21 20 18 17 17 17 17 18 19 19 20 20 20 20 21 20 18 17 17 17 17 16 16 17 17 15 12 9 9 11 10 6 3 6 12 23 31 31 30 30 29 30 32 35 41 47 52 55 56 57 56 55 53 52 51 52 53 53 54 56
Wind_Direction
288 295 300 299 297 291 281 272 269 271 273 273 274 275 276 277 279 280 278 270 267 277 281 279 285 290 289 287 280 271 265 258 249 244 243 242 239 235 232 231 231 231 229 228 230 231 230 229 227 228 226 222 227 228 223 229 221 207 207 208 207 206 204 206 209 212 214 214 217 220 221 221 218 214 213 207 201 203 208 216 220 220 223 228 233 236
305 313 312 301 291 284 279 274 270 271 273 276 277 278 278 278 277 274 271 268 268 276 279 276 279 282 281 280 275 270 267 263 254 244 240 239 239 236 233 231 231 231 230 228 229 231 230 230 229 229 227 223 224 226 223 220 217 214 210 205 206 207 205 207 210 213 216 215 217 220 220 220 219 215 210 204 200 203 207 215 220 220 222 226 232 235
319 321 311 294 281 273 273 275 275 276 279 281 283 282 280 278 279 276 272 270 269 275 278 276 277 278 274 272 270 265 261 260 257 248 240 237 236 235 233 232 232 232 231 229 228 230 229 229 230 230 229 224 220 222 222 217 217 220 215 209 210 209 206 206 209 212 215 216 217 220 219 219 218 215 210 204 199 201 204 210 217 218 219 224 230 235
332 321 308 300 294 290 290 289 288 289 290 290 288 285 285 284 284 281 276 272 270 273 276 276 277 277 270 266 265 261 256 251 250 248 243 239 236 234 232 232 234 233 233 230 228 230 230 228 228 230 230 226 218 215 215 213 214 217 218 217 214 212 211 208 208 212 216 217 218 220 218 217 216 214 214 211 202 200 201 205 213 217 218 222 229 234
327 317 308 302 299 298 298 294 294 297 297 296 293 289 288 287 284 283 277 270 267 268 272 275 275 273 267 262 259 258 255 246 242 243 243 241 238 236 233 232 234 234 234 233 229 229 231 229 227 228 230 227 220 214 209 209 213 218 223 222 216 215 215 212 210 214 218 218 220 222 219 216 219 217 217 219 212 204 201 203 211 217 219 221 227 234
324 327 320 310 303 299 295 293 295 297 294 291 288 287 288 287 285 284 280 275 271 270 272 273 272 266 258 255 252 255 255 246 239 238 237 237 238 237 235 233 234 234 235 235 232 230 231 231 228 227 229 227 223 218 214 216 223 227 227 224 222 219 216 214 214 214 218 219 220 224 223 221 222 219 218 225 220 205 198 203 210 217 221 223 227 232
335 345 341 331 320 310 304 302 299 297 294 291 288 290 295 297 298 296 291 286 284 282 279 277 277 270 250 243 245 248 252 245 238 236 234 234 235 235 234 234 234 234 235 236 234 231 231 232 230 227 227 228 227 225 224 226 230 232 228 224 226 228 224 221 218 215 216 218 218 221 222 221 221 216 214 222 217 202 195 202 208 215 221 223 227 230
348 349 344 345 337 329 324 317 311 310 311 308 302 302 305 306 306 303 297 293 292 289 287 287 287 279 256 239 239 239 246 242 234 233 233 232 233 235 236 236 235 234 234 236 236 234 232 232 232 229 228 228 229 231 232 233 233 233 230 225 227 231 231 228 223 218 217 219 219 218 216 216 216 210 208 211 209 202 198 201 206 213 220 222 227 230
350 343 344 348 342 340 333 322 322 324 323 318 313 312 312 310 307 302 297 295 292 292 296 298 290 279 262 244 236 227 233 235 229 229 230 229 230 234 238 239 239 236 234 235 236 236 235 234 232 230 229 229 231 233 235 235 233 231 229 227 227 230 231 231 229 224 220 220 221 219 212 211 211 205 204 207 207 205 202 202 205 213 220 223 228 232
346 345 352 354 345 337 327 323 331 333 330 326 320 318 315 310 307 303 300 297 294 297 302 298 287 276 268 259 242 226 222 227 228 228 228 229 231 236 240 243 245 244 239 235 235 236 237 237 235 232 230 230 231 233 235 234 231 228 227 227 227 229 231 232 233 230 224 219 216 213 207 206 208 206 206 208 209 208 205 202 204 212 220 224 229 234
347 2 5 8 7 348 332 336 349 346 341 337 329 320 311 307 307 304 300 298 296 300 299 291 286 279 275 268 236 226 224 223 227 231 232 234 238 242 246 247 248 249 247 241 238 236 236 237 237 234 231 230 231 232 233 233 231 227 226 225 225 228 230 231 235 235 227 217 212 212 211 210 212 213 212 210 208 210 210 205 203 209 218 223 228 234
359 17 12 17 25 17 358 353 360 356 350 349 343 336 327 319 319 313 304 301 300 299 294 288 286 280 278 277 250 246 244 230 225 230 235 239 242 244 247 248 247 248 249 247 243 240 237 235 237 237 234 232 232 232 232 231 231 229 227 225 225 227 228 230 236 235 226 217 213 216 220 220 219 217 217 213 208 210 215 212 206 208 215 221 226 232
1 8 4 18 34 35 21 4 359 355 351 352 350 345 341 337 340 334 318 313 307 299 296 294 288 282 286 288 269 259 252 239 231 231 234 238 241 244 246 248 248 248 247 247 246 244 241 237 236 236 235 234 233 232 231 230 230 231 229 226 225 227 227 228 234 232 225 220 216 218 222 222 222 221 221 220 214 212 216 216 212 210 215 220 224 229
359 360 355 14 36 33 23 9 359 354 353 355 354 351 348 344 347 348 339 332 322 308 300 295 290 288 288 283 272 260 249 242 238 236 237 239 241 243 247 248 249 248 247 247 245 244 244 240 237 235 235 234 233 232 230 228 228 229 230 228 225 227 227 228 230 226 224 225 220 219 222 222 223 223 222 224 223 221 221 221 217 213 215 220 224 227
348 354 350 3 16 4 5 4 360 358 0 4 3 1 356 351 350 351 346 341 340 340 318 291 289 292 285 279 277 268 256 246 241 239 239 241 241 241 244 248 249 249 247 247 245 244 243 242 239 236 234 233 232 232 230 228 228 227 228 229 226 227 228 229 229 225 227 234 226 218 218 220 221 221 221 223 226 227 228 226 222 216 215 219 224 226
331 343 347 346 345 351 2 4 359 360 3 6 8 6 3 0 356 352 350 344 342 350 351 299 285 290 285 281 276 268 262 255 249 245 244 244 245 244 245 247 249 249 247 246 245 244 242 242 240 238 236 233 231 230 230 228 228 226 226 228 228 229 230 231 232 232 235 237 225 217 217 219 220 221 222 223 226 229 231 230 226 221 216 216 221 224
326 331 336 340 347 353 359 0 360 1 3 6 9 9 8 5 359 354 352 347 344 352 359 341 290 289 287 280 272 268 267 264 259 255 253 250 249 250 253 255 254 250 245 244 244 243 243 242 241 239 237 235 231 229 229 228 228 226 224 225 228 231 230 230 232 234 236 230 219 217 219 219 219 221 222 223 226 230 232 231 229 225 218 215 218 222
324 327 330 339 349 352 354 358 1 359 358 3 8 10 10 8 2 356 354 355 357 1 4 358 335 313 300 285 276 275 273 269 266 263 259 256 255 258 264 266 263 255 244 239 240 241 243 244 244 243 239 237 234 230 227 227 228 227 225 223 225 229 229 228 227 228 230 227 220 219 218 216 217 219 219 220 223 228 231 231 230 228 223 218 219 221
324 324 325 335 344 347 351 359 0 354 352 360 6 7 7 7 6 2 359 2 7 12 19 23 6 323 306 299 291 285 279 273 270 267 262 260 259 263 268 268 265 257 244 235 235 237 240 243 244 245 243 239 236 232 228 226 227 227 226 223 222 225 227 226 224 224 226 225 222 220 216 212 213 214 214 214 218 223 227 227 229 229 228 224 221 221
318 314 319 332 340 344 349 354 352 346 349 358 4 5 6 10 13 8 3 7 13 19 32 41 22 336 322 317 305 294 287 278 272 267 262 259 258 262 267 266 262 255 244 234 231 233 237 241 243 244 246 243 238 234 229 227 226 226 227 224 221 222 223 224 222 221 222 221 220 219 215 211 211 211 209 209 212 217 220 221 224 226 226 224 221 221
309 309 318 326 334 343 344 340 337 338 346 357 3 3 6 13 17 13 10 14 18 20 26 31 19 353 340 331 315 302 292 281 273 267 261 257 258 261 265 266 261 253 244 235 230 231 234 238 241 243 245 246 241 235 231 228 226 225 226 225 221 219 220 221 221 220 220 220 219 217 214 214 214 211 207 204 205 209 212 213 213 214 215 215 217 220
301 308 319 322 335 344 335 332 340 344 350 358 2 2 3 8 13 16 18 19 19 17 14 13 8 355 347 341 331 317 303 291 279 270 262 257 258 262 266 267 262 252 244 236 229 230 233 235 238 241 244 246 244 238 232 229 227 226 226 225 222 219 218 218 220 219 219 220 222 220 218 220 219 214 207 202 202 205 207 206 205 206 208 209 212 218
293 302 312 316 328 336 330 332 341 351 0 3 1 359 1 5 10 14 18 17 14 11 5 2 360 354 350 346 335 323 314 310 302 288 274 262 258 260 263 265 262 253 244 237 231 229 231 234 236 240 243 246 247 241 234 229 227 227 226 225 223 219 217 216 218 218 217 219 223 224 223 224 222 215 211 209 208 207 206 205 205 206 207 207 210 215
287 299 309 316 328 338 340 342 342 350 1 2 358 357 1 7 12 15 16 13 8 5 2 0 358 355 351 342 332 326 323 323 319 308 292 273 260 259 258 258 260 256 246 239 233 230 231 234 237 240 242 245 248 246 239 231 228 227 226 226 225 221 218 216 216 217 217 219 222 224 224 224 222 218 217 218 218 216 213 210 208 207 207 206 208 214
282 290 302 315 327 333 335 339 341 346 350 350 354 358 1 5 13 18 17 12 9 5 3 1 357 353 347 338 336 337 336 331 324 316 307 287 267 261 258 253 255 255 250 242 235 231 232 234 237 240 242 244 247 248 244 235 229 227 226 227 226 223 221 219 217 217 219 220 222 224 224 224 221 220 221 221 222 224 222 218 214 212 210 207 208 213
279 281 288 300 305 303 313 327 336 342 343 344 351 357 357 359 7 15 14 11 11 10 5 359 354 350 343 339 345 349 344 335 329 326 323 305 281 268 260 257 256 254 250 243 236 231 232 234 237 240 241 243 245 248 249 241 233 228 227 227 227 225 223 222 220 218 220 222 224 226 227 226 223 223 224 225 227 228 224 220 216 215 213 210 210 214
286 293 302 312 318 321 328 332 334 339 343 344 349 353 353 355 1 8 10 7 9 12 10 1 352 347 344 344 352 357 351 343 340 340 334 321 307 285 264 265 267 260 250 241 234 231 233 235 237 241 243 244 245 247 249 247 238 230 228 227 228 227 225 224 224 222 221 223 226 228 230 228 226 227 229 231 233 231 225 219 215 214 214 212 212 215
296 303 309 315 323 327 326 324 327 334 340 341 345 348 348 350 356 3 7 5 4 9 12 6 355 349 348 349 353 356 355 351 347 344 338 330 322 299 272 275 277 263 243 229 226 230 235 237 239 241 244 245 244 244 246 248 243 234 229 227 227 228 227 225 226 226 223 223 225 229 231 229 228 230 232 235 235 231 226 220 216 215 216 215 214 214
301 307 307 310 317 321 318 318 323 329 334 336 338 341 341 344 351 357 1 3 3 5 8 6 1 356 354 352 352 354 357 354 348 343 342 340 331 302 274 279 279 256 235 226 229 235 239 240 241 241 241 241 240 241 243 247 246 239 232 228 227 228 229 228 228 229 227 224 225 228 230 230 229 229 232 236 234 227 223 220 216 215 216 218 219 216
303 303 300 302 308 311 311 316 323 325 328 330 332 335 334 338 347 350 351 357 1 2 2 3 4 4 2 353 348 354 360 357 348 341 340 345 343 314 280 273 269 254 242 237 238 242 243 243 244 243 242 241 239 240 242 245 246 242 235 230 228 228 230 231 230 231 230 226 225 228 229 229 230 231 232 234 233 227 224 221 217 216 215 217 220 219
299 297 296 297 299 302 305 313 320 322 323 327 330 331 330 334 341 341 338 343 352 356 357 358 2 9 11 360 350 356 3 2 356 346 335 338 344 330 296 276 269 262 254 250 247 246 245 244 243 243 243 243 241 240 241 243 244 242 237 233 229 228 231 233 232 233 232 228 226 227 229 229 230 231 233 234 234 229 223 220 219 218 216 216 219 220
293 295 297 297 295 298 303 310 315 318 320 324 326 324 324 328 332 333 333 336 343 350 354 353 356 4 12 11 3 1 4 5 5 358 336 324 326 326 309 283 271 265 261 259 255 252 249 245 244 243 242 242 242 241 241 241 241 240 237 234 231 229 231 235 235 233 232 230 227 226 228 229 229 230 231 232 231 226 221 220 220 219 218 217 217 219
291 293 294 293 292 297 303 307 312 314 317 320 319 316 320 326 330 332 333 336 340 346 350 350 352 358 4 12 14 9 8 10 11 12 3 333 306 297 293 283 274 269 266 265 263 260 257 253 249 246 244 243 242 242 241 239 238 237 235 234 232 231 231 234 236 234 231 231 228 225 226 228 229 229 226 226 228 226 222 221 221 220 219 218 218 218
294 294 293 294 295 300 305 309 312 314 317 318 315 316 321 327 332 332 330 334 339 343 347 347 347 351 356 4 13 12 8 10 13 17 18 5 331 292 277 271 268 268 267 268 268 267 265 263 260 253 248 244 242 242 241 239 236 234 233 232 233 232 232 233 235 234 231 230 230 226 224 225 229 229 225 225 230 230 225 222 222 221 220 219 219 220
292 295 298 300 301 304 307 309 312 314 316 316 316 321 327 332 335 333 330 332 336 337 343 344 341 346 351 354 4 9 4 3 4 4 7 9 360 331 297 278 267 263 265 269 273 276 273 270 268 262 251 242 240 241 240 238 235 231 229 230 231 232 232 233 234 234 232 231 229 226 223 223 225 225 224 225 229 228 225 223 223 222 222 220 220 221
292 296 300 301 303 306 306 307 309 311 313 316 321 328 330 329 331 330 327 328 329 332 341 343 338 342 348 348 355 4 4 2 1 358 359 5 3 348 328 311 290 274 271 276 284 290 288 280 274 270 259 242 236 238 239 237 234 229 227 227 228 230 232 233 234 234 234 233 230 226 224 224 223 221 220 220 222 223 223 224 223 222 223 222 222 222
300 300 301 304 306 307 306 306 308 311 315 321 324 325 325 324 327 331 329 327 328 333 340 341 335 336 344 345 348 357 3 2 0 2 5 8 7 359 343 329 316 297 282 281 287 290 291 290 282 274 266 246 234 235 237 236 233 229 226 225 226 228 230 232 234 235 235 235 232 227 226 226 225 223 220 218 218 219 222 225 226 224 223 224 224 224
312 308 305 305 305 305 306 306 307 312 318 322 321 320 321 325 330 335 334 330 331 335 337 335 331 331 337 342 342 349 359 359 359 6 10 10 13 13 2 345 331 318 301 288 284 282 283 289 287 274 264 252 237 233 234 234 233 229 226 224 225 226 228 229 231 233 235 236 235 231 229 228 226 225 223 221 220 220 223 228 230 227 225 226 228 227
319 311 305 302 301 302 304 304 306 312 319 319 318 318 323 326 329 334 337 334 332 332 329 327 328 330 333 340 342 343 350 355 359 7 10 9 12 16 16 9 353 335 323 306 285 276 274 281 288 282 265 253 242 235 233 234 234 231 226 223 223 224 226 226 227 229 232 234 235 233 231 230 228 226 225 223 223 223 225 228 229 228 227 227 229 230
323 314 309 306 304 304 306 310 314 318 320 318 318 320 323 325 327 331 335 332 328 326 323 324 331 334 334 340 344 342 343 350 356 3 8 8 8 13 17 19 12 352 339 329 298 275 270 272 283 288 279 264 251 241 237 236 236 234 228 223 223 224 226 226 226 228 229 232 234 234 233 232 230 228 226 225 225 226 226 226 227 228 228 228 229 230
329 322 317 316 314 313 316 319 320 321 319 317 317 318 320 321 326 330 330 327 327 328 327 330 339 344 340 340 344 343 342 348 353 357 2 4 4 9 15 19 22 12 353 344 322 280 267 268 278 286 285 277 265 253 244 241 240 238 233 227 225 225 226 227 226 226 227 229 231 232 233 233 233 231 229 226 226 227 228 228 226 226 228 229 230 231
328 326 324 323 322 320 323 323 321 319 318 314 313 314 316 318 323 328 327 326 330 335 337 338 343 349 347 342 344 347 346 347 349 351 356 359 1 6 12 18 28 30 6 347 336 300 271 269 279 285 284 280 273 263 253 246 243 241 237 231 228 227 227 228 227 225 225 225 227 229 231 232 233 233 231 228 227 227 230 232 231 229 229 229 230 232
326 326 328 329 327 325 326 324 320 317 314 310 309 310 312 316 319 323 327 330 335 340 342 341 343 348 349 345 346 351 350 347 347 346 348 353 357 3 10 15 25 37 28 359 347 336 297 273 276 285 285 282 277 269 259 251 247 244 240 235 232 230 230 230 230 229 226 225 225 227 229 231 233 234 233 232 229 227 229 232 235 234 232 231 231 232
323 324 326 328 327 326 324 320 316 315 313 310 310 311 314 317 319 322 328 335 339 342 343 342 342 346 349 349 351 355 355 350 349 346 340 345 354 0 7 13 18 31 43 33 7 1 347 299 280 281 283 284 283 277 268 258 250 246 243 239 235 233 232 232 233 233 232 230 229 229 229 231 233 234 235 235 232 229 228 230 234 237 236 234 232 231
323 324 324 325 325 323 320 316 313 315 316 315 315 316 318 321 321 324 332 338 340 342 346 345 342 343 348 353 353 355 355 352 352 349 339 340 352 359 2 10 14 21 38 49 33 15 12 351 311 290 280 277 278 277 274 269 259 250 245 241 238 236 235 234 234 235 235 235 235 235 233 233 233 234 235 235 234 231 229 229 232 236 238 236 234 232
324 324 324 324 324 321 318 314 313 316 318 318 318 319 319 320 322 326 333 337 336 339 344 346 344 342 347 353 354 353 353 350 350 351 343 339 348 357 357 2 10 16 26 41 49 40 24 12 356 329 303 288 279 274 271 270 267 260 251 245 241 238 237 237 236 236 236 236 236 237 236 234 233 233 234 235 234 233 231 231 232 236 239 238 236 234
325 323 323 324 323 319 316 313 314 318 320 319 319 319 318 321 325 329 332 332 331 334 338 341 345 348 349 352 353 351 351 348 346 349 346 340 344 355 357 355 1 10 17 26 38 46 32 355 335 334 331 318 296 280 273 268 264 264 260 253 246 241 239 239 239 238 238 237 236 236 236 234 232 232 233 234 234 233 232 232 233 236 240 241 239 237
325 321 322 323 320 317 314 314 317 321 323 321 320 319 319 322 327 329 329 328 327 329 332 335 343 352 353 353 353 351 349 348 345 345 347 345 344 352 357 354 355 2 9 14 20 25 24 16 360 350 10 11 356 329 300 275 264 262 262 259 256 250 244 242 241 240 240 239 236 235 235 233 230 230 232 232 233 232 232 232 234 237 240 242 242 239
322 318 321 322 319 315 313 315 320 324 326 324 321 318 318 321 324 325 324 323 324 327 329 331 337 346 352 354 355 353 349 348 346 343 346 349 349 353 356 355 353 356 0 4 7 9 12 15 13 6 8 8 4 10 12 322 264 261 262 262 260 256 252 249 245 242 241 240 237 234 233 230 228 228 230 231 231 232 231 232 234 237 240 242 242 241
318 317 320 320 317 314 312 315 320 323 324 324 321 319 319 322 323 323 321 319 321 324 326 327 331 338 346 354 359 356 351 349 347 344 346 350 353 355 357 355 353 355 355 354 356 357 359 2 2 359 1 1 356 2 17 25 350 266 264 267 264 258 255 253 251 249 245 240 236 233 230 227 225 227 229 230 231 232 232 232 234 237 239 241 241 241
315 316 319 317 314 311 311 314 318 320 321 322 322 319 319 321 321 320 319 318 319 320 322 328 332 333 337 349 358 358 354 352 351 348 349 353 355 356 357 355 352 354 356 354 352 350 349 350 351 351 352 353 356 1 6 16 30 32 324 302 281 263 255 250 249 251 251 245 237 231 228 226 225 226 228 230 231 233 232 232 233 236 238 240 241 241
Height
5702 5702 5702 5702 5702 5703 5703 5704 5704 5704 5704 5703 5703 5703 5703 5703 5703 5702 5702 5700 5699 5699 5698 5698 5698 5700 5701 5701 5701 5701 5700 5702 5703 5705 5707 5708 5710 5713 5715 5716 5718 5721 5724 5727 5729 5732 5735 5738 5742 5745 5748 5753 5758 5761 5762 5765 5769 5770 5773 5775 5777 5779 5782 5785 5790 5794 5798 5802 5805 5809 5814 5818 5821 5823 5825 5828 5830 5833 5836 5839 5842 5845 5847 5848 5850 5851
5701 5701 5702 5702 5702 5701 5701 5702 5702 5701 5702 5701 5701 5701 5700 5700 5699 5699 5698 5697 5696 5695 5695 5695 5695 5697 5698 5698 5698 5698 5698 5698 5699 5700 5702 5703 5705 5708 5710 5712 5713 5715 5719 5722 5725 5726 5730 5733 5736 5740 5743 5749 5755 5758 5759 5762 5766 5768 5770 5771 5772 5774 5777 5781 5786 5792 5797 5801 5804 5807 5811 5815 5817 5819 5822 5823 5826 5829 5832 5836 5840 5843 5845 5847 5848 5849
5701 5701 5701 5701 5700 5700 5700 5700 5699 5699 5699 5699 5698 5697 5697 5696 5695 5695 5695 5694 5692 5692 5691 5691 5691 5693 5694 5695 5695 5695 5695 5695 5695 5696 5697 5699 5701 5703 5705 5706 5708 5710 5713 5717 5719 5720 5723 5727 5731 5735 5738 5745 5750 5753 5756 5759 5762 5765 5766 5766 5768 5770 5772 5776 5781 5788 5793 5797 5801 5804 5808 5810 5812 5815 5818 5818 5819 5823 5828 5832 5837 5841 5844 5845 5846 5847
5701 5701 5700 5699 5699 5699 5698 5698 5697 5697 5697 5697 5696 5694 5693 5693 5692 5692 5692 5691 5690 5689 5688 5688 5688 5689 5691 5691 5691 5691 5691 5692 5692 5693 5693 5694 5696 5697 5699 5701 5702 5704 5706 5710 5713 5714 5717 5721 5727 5730 5734 5739 5745 5748 5751 5753 5756 5760 5762 5763 5765 5767 5769 5772 5777 5783 5788 5793 5796 5799 5803 5806 5807 5811 5814 5815 5816 5819 5824 5829 5834 5838 5841 5843 5844 5845
5701 5700 5700 5699 5698 5698 5697 5696 5695 5696 5696 5695 5693 5692 5691 5691 5690 5689 5689 5688 5687 5687 5686 5685 5684 5685 5687 5688 5688 5687 5687 5688 5689 5690 5691 5690 5691 5692 5694 5695 5696 5698 5700 5702 5706 5709 5710 5715 5721 5725 5729 5733 5738 5743 5746 5747 5749 5753 5757 5760 5762 5762 5765 5770 5775 5780 5784 5788 5792 5795 5799 5801 5803 5807 5811 5814 5816 5817 5821 5827 5832 5836 5839 5841 5842 5843
5700 5700 5699 5698 5697 5697 5696 5695 5694 5694 5694 5693 5691 5689 5689 5688 5687 5686 5685 5684 5683 5683 5683 5682 5680 5681 5683 5684 5684 5683 5683 5684 5685 5686 5687 5687 5687 5687 5689 5689 5690 5691 5693 5695 5699 5703 5705 5708 5714 5719 5722 5727 5733 5737 5739 5741 5744 5748 5752 5755 5756 5757 5760 5766 5771 5776 5780 5784 5788 5790 5795 5797 5800 5806 5810 5813 5815 5817 5821 5826 5830 5833 5836 5838 5840 5842
5699 5699 5698 5697 5696 5695 5694 5693 5693 5692 5692 5691 5689 5688 5686 5685 5684 5683 5682 5680 5680 5679 5679 5679 5677 5677 5679 5680 5680 5680 5679 5680 5681 5682 5683 5683 5682 5683 5683 5684 5684 5685 5687 5689 5692 5696 5699 5702 5707 5712 5716 5721 5726 5730 5731 5735 5740 5744 5747 5750 5752 5755 5757 5761 5767 5771 5774 5778 5782 5786 5790 5792 5796 5802 5805 5808 5812 5814 5818 5823 5827 5830 5833 5836 5838 5840
5699 5698 5696 5696 5694 5694 5693 5691 5691 5690 5690 5689 5687 5685 5683 5682 5681 5680 5678 5677 5676 5675 5675 5677 5676 5673 5674 5676 5677 5676 5675 5675 5677 5677 5678 5679 5679 5679 5680 5680 5680 5682 5683 5685 5688 5692 5694 5697 5701 5706 5711 5715 5719 5721 5723 5729 5736 5741 5743 5745 5749 5753 5755 5758 5763 5768 5771 5774 5778 5782 5785 5787 5791 5796 5798 5802 5806 5810 5813 5818 5823 5827 5831 5833 5836 5838
5698 5697 5696 5695 5693 5692 5691 5690 5689 5688 5687 5685 5684 5683 5681 5680 5679 5677 5675 5674 5673 5672 5672 5674 5673 5669 5670 5672 5673 5673 5673 5673 5673 5673 5673 5674 5675 5675 5676 5676 5677 5678 5679 5681 5684 5688 5690 5693 5697 5701 5705 5709 5712 5715 5719 5725 5732 5736 5739 5742 5746 5751 5754 5756 5760 5765 5768 5772 5776 5780 5783 5785 5789 5791 5792 5796 5801 5806 5810 5814 5819 5824 5828 5831 5834 5836
5698 5696 5696 5695 5693 5692 5690 5688 5688 5686 5685 5683 5682 5681 5679 5677 5676 5674 5672 5671 5670 5669 5670 5670 5668 5666 5667 5669 5670 5670 5671 5670 5669 5669 5669 5670 5670 5670 5671 5673 5674 5674 5676 5678 5679 5683 5686 5689 5692 5696 5700 5703 5707 5711 5715 5721 5728 5732 5735 5739 5743 5748 5751 5754 5757 5762 5766 5769 5773 5777 5780 5784 5788 5789 5790 5793 5798 5803 5807 5810 5816 5822 5826 5829 5831 5833
5697 5696 5695 5694 5693 5691 5689 5688 5687 5686 5684 5682 5680 5679 5677 5675 5674 5672 5670 5668 5667 5667 5667 5666 5665 5664 5664 5667 5668 5667 5667 5666 5666 5666 5666 5667 5667 5668 5669 5670 5672 5671 5672 5675 5676 5678 5681 5684 5687 5691 5696 5700 5703 5707 5712 5717 5723 5728 5732 5736 5741 5745 5748 5751 5754 5758 5762 5766 5770 5773 5777 5781 5785 5788 5789 5792 5796 5801 5805 5807 5812 5818 5823 5826 5828 5831
5696 5695 5694 5693 5692 5691 5689 5686 5685 5684 5682 5680 5677 5676 5674 5673 5672 5670 5668 5666 5665 5664 5663 5662 5662 5661 5662 5665 5666 5664 5663 5662 5661 5662 5662 5663 5664 5664 5665 5667 5668 5668 5669 5670 5672 5674 5676 5680 5683 5686 5691 5696 5700 5704 5708 5713 5718 5723 5728 5733 5737 5741 5745 5748 5750 5754 5758 5762 5766 5770 5774 5777 5781 5785 5788 5791 5794 5798 5802 5805 5809 5814 5819 5822 5825 5828
5694 5693 5692 5692 5691 5690 5689 5687 5684 5682 5680 5678 5675 5673 5671 5670 5669 5668 5666 5665 5663 5661 5660 5659 5659 5659 5660 5662 5661 5660 5659 5658 5658 5658 5658 5659 5659 5660 5661 5663 5664 5665 5665 5666 5668 5669 5671 5675 5678 5681 5686 5691 5695 5699 5704 5709 5713 5718 5723 5727 5732 5736 5741 5744 5746 5750 5755 5758 5762 5766 5770 5774 5777 5782 5786 5789 5792 5795 5798 5802 5806 5811 5816 5819 5822 5825
5694 5692 5691 5691 5691 5690 5689 5687 5686 5683 5680 5678 5675 5672 5669 5667 5666 5665 5663 5662 5661 5660 5658 5656 5656 5657 5658 5657 5656 5655 5655 5654 5654 5654 5654 5655 5656 5657 5658 5659 5660 5661 5661 5661 5663 5664 5666 5668 5672 5676 5680 5685 5689 5693 5698 5703 5708 5712 5717 5722 5727 5732 5736 5740 5743 5746 5750 5754 5759 5763 5767 5770 5774 5778 5782 5786 5790 5793 5795 5798 5803 5807 5812 5816 5819 5822
5693 5692 5691 5690 5690 5689 5688 5686 5684 5682 5679 5677 5674 5670 5668 5665 5663 5661 5659 5658 5657 5658 5656 5654 5653 5654 5654 5654 5653 5651 5650 5650 5650 5650 5651 5652 5653 5654 5655 5656 5657 5658 5658 5657 5657 5659 5660 5662 5666 5670 5674 5678 5683 5687 5691 5696 5701 5707 5712 5717 5722 5726 5731 5736 5740 5742 5746 5750 5755 5759 5763 5767 5771 5775 5779 5782 5786 5789 5792 5795 5799 5803 5807 5812 5816 5818
5692 5692 5691 5690 5689 5688 5686 5684 5682 5680 5678 5675 5672 5669 5666 5664 5662 5660 5657 5655 5653 5653 5653 5652 5651 5651 5651 5650 5648 5647 5646 5646 5646 5647 5648 5649 5650 5651 5651 5652 5652 5653 5654 5653 5653 5653 5655 5657 5660 5664 5668 5672 5677 5681 5685 5690 5694 5700 5707 5712 5716 5721 5726 5731 5736 5739 5743 5747 5751 5755 5759 5764 5768 5771 5775 5779 5782 5785 5788 5792 5796 5798 5802 5807 5811 5813
5691 5690 5690 5689 5687 5686 5684 5683 5681 5679 5676 5674 5671 5669 5666 5664 5661 5658 5656 5654 5651 5650 5650 5649 5649 5648 5647 5646 5644 5643 5643 5642 5643 5644 5645 5645 5646 5646 5647 5647 5647 5647 5648 5649 5649 5649 5651 5653 5655 5658 5662 5665 5670 5675 5679 5684 5688 5693 5700 5707 5711 5715 5720 5726 5732 5736 5739 5743 5747 5751 5754 5757 5761 5765 5770 5775 5778 5781 5784 5787 5791 5794 5797 5801 5805 5808
5690 5689 5688 5687 5686 5685 5683 5681 5679 5677 5675 5673 5671 5668 5666 5664 5661 5657 5655 5653 5651 5649 5648 5647 5647 5645 5644 5644 5643 5642 5641 5639 5639 5639 5639 5639 5640 5641 5641 5640 5639 5639 5641 5643 5645 5646 5647 5650 5652 5654 5657 5660 5664 5669 5673 5678 5682 5686 5693 5700 5705 5709 5715 5722 5728 5732 5735 5739 5743 5746 5747 5749 5752 5757 5762 5769 5773 5776 5779 5782 5786 5789 5793 5796 5799 5803
5689 5688 5687 5686 5685 5684 5682 5680 5678 5676 5674 5672 5670 5668 5666 5663 5660 5657 5654 5652 5649 5648 5647 5646 5645 5644 5642 5641 5640 5639 5637 5636 5635 5634 5633 5634 5634 5634 5634 5633 5632 5631 5633 5636 5639 5641 5643 5645 5648 5650 5653 5655 5658 5662 5667 5672 5676 5680 5686 5693 5700 5705 5710 5716 5722 5727 5731 5735 5739 5742 5743 5746 5749 5751 5754 5759 5765 5768 5772 5776 5781 5785 5788 5791 5793 5798
5688 5687 5686 5685 5684 5683 5682 5680 5680 5678 5676 5673 5671 5669 5667 5663 5659 5656 5654 5652 5649 5647 5646 5645 5644 5642 5641 5639 5637 5635 5633 5632 5630 5629 5629 5628 5628 5628 5627 5626 5626 5625 5626 5629 5633 5636 5638 5639 5642 5645 5647 5650 5653 5656 5661 5666 5670 5674 5680 5686 5694 5700 5704 5710 5715 5721 5726 5730 5734 5737 5740 5742 5744 5746 5748 5749 5753 5759 5764 5769 5774 5778 5782 5784 5788 5792
5688 5687 5686 5685 5684 5683 5682 5681 5680 5678 5676 5674 5671 5668 5666 5663 5661 5659 5656 5652 5649 5647 5645 5644 5643 5641 5639 5638 5635 5633 5630 5628 5626 5624 5624 5623 5622 5622 5620 5619 5619 5620 5621 5624 5627 5631 5632 5634 5636 5639 5642 5645 5647 5651 5655 5660 5664 5669 5674 5680 5687 5694 5698 5704 5710 5715 5720 5724 5727 5731 5735 5739 5739 5740 5742 5744 5745 5749 5754 5761 5767 5771 5774 5778 5781 5786
5687 5686 5685 5684 5683 5682 5682 5681 5679 5677 5674 5671 5668 5666 5664 5662 5660 5657 5654 5650 5648 5646 5644 5643 5641 5639 5637 5635 5632 5629 5626 5623 5620 5619 5619 5618 5617 5616 5615 5614 5614 5615 5616 5618 5622 5626 5628 5629 5631 5634 5637 5639 5642 5645 5649 5654 5658 5663 5668 5674 5680 5687 5692 5698 5704 5708 5714 5718 5721 5724 5730 5735 5736 5735 5735 5738 5742 5745 5748 5753 5759 5764 5768 5771 5775 5780
5686 5686 5685 5683 5682 5682 5681 5679 5678 5676 5673 5669 5667 5665 5663 5661 5658 5654 5651 5649 5647 5646 5644 5642 5640 5637 5635 5632 5630 5626 5621 5617 5614 5613 5612 5611 5612 5611 5610 5609 5609 5610 5612 5614 5617 5620 5623 5626 5628 5630 5633 5635 5638 5641 5644 5648 5653 5657 5662 5667 5673 5680 5686 5691 5697 5702 5707 5711 5715 5720 5724 5728 5732 5734 5732 5733 5737 5743 5745 5747 5751 5757 5761 5766 5770 5774
5686 5685 5684 5682 5681 5681 5680 5678 5676 5674 5671 5670 5669 5666 5663 5660 5657 5653 5651 5649 5646 5645 5642 5640 5638 5636 5633 5630 5627 5622 5616 5612 5609 5606 5604 5604 5605 5606 5605 5605 5605 5606 5608 5609 5612 5616 5619 5622 5624 5626 5629 5632 5634 5637 5639 5643 5647 5651 5656 5661 5666 5673 5679 5684 5689 5694 5699 5704 5708 5713 5717 5720 5726 5730 5732 5734 5736 5740 5743 5745 5747 5752 5756 5760 5765 5769
5686 5685 5684 5682 5681 5680 5679 5678 5675 5673 5671 5670 5669 5667 5663 5660 5657 5655 5652 5650 5647 5644 5642 5640 5638 5635 5632 5628 5623 5619 5614 5609 5605 5601 5598 5598 5599 5600 5601 5602 5602 5602 5603 5605 5608 5612 5615 5619 5621 5623 5626 5628 5630 5633 5635 5638 5642 5646 5650 5654 5660 5667 5673 5676 5681 5687 5692 5697 5702 5705 5708 5713 5719 5724 5728 5733 5737 5739 5742 5744 5747 5751 5754 5757 5761 5765
5685 5684 5684 5683 5682 5680 5679 5677 5675 5673 5672 5670 5668 5666 5664 5661 5658 5655 5653 5650 5648 5645 5643 5639 5637 5634 5631 5627 5622 5617 5612 5608 5603 5599 5597 5596 5597 5598 5599 5599 5599 5599 5599 5601 5604 5609 5612 5615 5618 5621 5623 5625 5627 5629 5631 5633 5637 5641 5645 5649 5654 5661 5666 5669 5674 5680 5686 5691 5695 5697 5701 5707 5714 5718 5723 5728 5732 5735 5738 5740 5744 5748 5752 5755 5759 5762
5683 5683 5682 5682 5681 5679 5677 5676 5674 5672 5671 5669 5667 5665 5663 5660 5657 5654 5652 5650 5648 5646 5643 5639 5635 5632 5628 5624 5620 5615 5610 5606 5603 5600 5598 5597 5597 5598 5598 5597 5597 5596 5596 5598 5602 5607 5610 5613 5616 5618 5619 5621 5623 5625 5627 5629 5632 5636 5640 5644 5649 5654 5660 5663 5666 5672 5679 5684 5688 5691 5694 5701 5708 5713 5719 5723 5726 5729 5732 5735 5739 5743 5747 5750 5753 5757
5682 5681 5680 5679 5679 5678 5676 5675 5673 5671 5670 5668 5667 5665 5663 5661 5657 5655 5652 5650 5647 5645 5642 5639 5636 5631 5627 5622 5617 5613 5609 5606 5603 5601 5599 5598 5597 5597 5597 5596 5596 5595 5596 5598 5602 5606 5609 5611 5613 5615 5616 5617 5618 5621 5623 5624 5627 5630 5635 5639 5644 5648 5653 5656 5660 5665 5671 5678 5682 5685 5689 5696 5704 5708 5713 5718 5721 5723 5726 5730 5734 5738 5742 5745 5747 5750
5681 5680 5678 5677 5677 5676 5676 5674 5673 5671 5669 5667 5666 5664 5663 5661 5657 5654 5652 5650 5646 5643 5641 5639 5635 5630 5626 5622 5618 5614 5610 5606 5604 5601 5600 5598 5597 5597 5597 5597 5596 5596 5598 5600 5603 5605 5607 5609 5610 5611 5612 5613 5614 5616 5618 5620 5622 5625 5629 5634 5639 5643 5647 5650 5654 5658 5664 5671 5676 5680 5685 5692 5698 5702 5706 5711 5715 5718 5721 5725 5728 5732 5736 5740 5743 5746
5680 5679 5678 5676 5675 5675 5674 5673 5672 5671 5669 5667 5665 5663 5661 5659 5656 5653 5652 5650 5647 5644 5641 5639 5635 5631 5626 5622 5619 5615 5611 5608 5605 5602 5601 5600 5598 5598 5598 5598 5598 5598 5599 5601 5602 5604 5605 5606 5607 5608 5608 5609 5611 5612 5614 5616 5618 5620 5625 5630 5634 5638 5642 5645 5648 5652 5657 5664 5671 5675 5680 5687 5693 5696 5700 5705 5710 5713 5716 5720 5723 5725 5728 5732 5737 5741
5679 5678 5677 5675 5674 5673 5672 5671 5671 5670 5668 5666 5663 5661 5660 5658 5655 5653 5652 5650 5648 5644 5641 5638 5635 5632 5628 5625 5620 5616 5612 5609 5606 5603 5601 5601 5599 5599 5598 5598 5598 5599 5599 5600 5601 5602 5603 5603 5604 5605 5605 5606 5607 5609 5610 5611 5613 5616 5620 5625 5629 5634 5637 5640 5644 5648 5652 5658 5665 5670 5675 5681 5686 5690 5694 5699 5704 5707 5710 5714 5717 5720 5723 5727 5732 5736
5677 5677 5676 5674 5673 5672 5671 5670 5669 5668 5667 5665 5663 5661 5659 5657 5655 5653 5650 5648 5646 5643 5640 5637 5634 5631 5628 5625 5620 5616 5613 5610 5607 5604 5602 5601 5600 5599 5598 5597 5597 5597 5597 5598 5598 5599 5600 5600 5601 5601 5602 5603 5604 5605 5606 5607 5609 5612 5616 5620 5625 5629 5633 5636 5639 5643 5648 5653 5658 5664 5669 5673 5678 5683 5688 5693 5698 5700 5703 5707 5712 5715 5718 5722 5726 5729
5675 5675 5674 5673 5672 5670 5669 5668 5667 5666 5665 5664 5662 5660 5658 5656 5654 5651 5649 5646 5644 5641 5638 5635 5632 5629 5626 5623 5620 5617 5614 5611 5607 5604 5602 5600 5599 5598 5596 5595 5594 5594 5594 5594 5594 5595 5595 5596 5596 5597 5598 5599 5600 5601 5602 5604 5606 5608 5611 5616 5620 5624 5629 5632 5635 5639 5644 5648 5652 5658 5663 5666 5671 5676 5681 5687 5691 5694 5697 5702 5706 5710 5713 5716 5719 5722
5673 5673 5672 5672 5670 5669 5667 5666 5665 5664 5663 5661 5660 5658 5656 5654 5652 5650 5648 5646 5643 5640 5637 5634 5632 5629 5626 5623 5619 5616 5614 5611 5608 5605 5602 5599 5598 5596 5594 5592 5591 5591 5590 5590 5590 5590 5590 5590 5591 5592 5593 5594 5596 5597 5599 5600 5602 5604 5607 5612 5616 5621 5625 5629 5632 5636 5641 5644 5647 5653 5658 5662 5665 5670 5675 5680 5685 5688 5692 5697 5700 5704 5707 5709 5712 5716
5672 5671 5670 5669 5669 5667 5666 5664 5663 5662 5660 5659 5658 5656 5654 5652 5651 5648 5645 5643 5642 5640 5638 5635 5632 5629 5626 5623 5619 5616 5613 5611 5608 5605 5602 5598 5595 5593 5591 5589 5588 5587 5587 5586 5586 5586 5586 5586 5586 5586 5586 5588 5591 5593 5595 5597 5598 5601 5604 5608 5612 5617 5621 5625 5629 5633 5637 5640 5643 5648 5653 5657 5661 5664 5669 5674 5679 5683 5687 5690 5694 5698 5701 5704 5706 5710
5671 5670 5669 5668 5667 5666 5664 5663 5662 5661 5659 5657 5656 5654 5652 5651 5650 5649 5645 5642 5640 5639 5637 5634 5632 5629 5626 5623 5620 5617 5613 5610 5608 5605 5602 5598 5595 5591 5588 5586 5584 5584 5583 5583 5583 5583 5582 5582 5582 5582 5582 5583 5586 5588 5590 5593 5595 5597 5600 5604 5608 5612 5616 5620 5625 5629 5633 5636 5640 5644 5648 5652 5656 5660 5664 5668 5673 5678 5681 5685 5688 5691 5695 5698 5701 5704
5669 5668 5667 5666 5665 5664 5663 5662 5661 5659 5658 5656 5653 5652 5651 5650 5649 5647 5644 5641 5638 5636 5634 5633 5631 5628 5625 5623 5620 5617 5614 5611 5608 5605 5602 5598 5595 5591 5587 5584 5582 5581 5580 5580 5580 5580 5579 5579 5579 5579 5579 5579 5582 5584 5587 5589 5591 5594 5597 5601 5605 5608 5612 5616 5620 5624 5628 5632 5636 5640 5644 5648 5651 5655 5658 5663 5667 5672 5676 5680 5683 5686 5689 5692 5695 5699
5668 5667 5665 5664 5663 5662 5661 5660 5659 5658 5656 5654 5652 5650 5649 5647 5646 5645 5642 5639 5636 5634 5632 5631 5630 5627 5625 5622 5619 5617 5615 5612 5608 5605 5601 5598 5595 5591 5588 5584 5581 5579 5578 5578 5578 5578 5577 5576 5576 5576 5576 5577 5579 5581 5583 5586 5588 5590 5593 5597 5600 5604 5608 5611 5614 5618 5622 5627 5631 5635 5639 5642 5646 5650 5653 5657 5662 5666 5670 5675 5678 5682 5685 5688 5691 5695
5666 5665 5664 5663 5662 5661 5660 5659 5657 5656 5654 5653 5651 5648 5647 5645 5644 5643 5641 5638 5635 5634 5632 5630 5628 5625 5623 5620 5617 5615 5613 5611 5608 5604 5600 5598 5595 5592 5588 5585 5582 5579 5577 5576 5575 5575 5574 5574 5573 5574 5574 5575 5577 5579 5581 5583 5585 5587 5589 5592 5596 5599 5602 5606 5609 5612 5616 5620 5624 5629 5633 5636 5641 5644 5648 5651 5655 5659 5664 5668 5673 5676 5680 5684 5687 5690
5666 5664 5663 5662 5660 5659 5658 5657 5655 5653 5652 5650 5649 5647 5645 5643 5642 5641 5640 5638 5636 5634 5631 5628 5626 5623 5620 5618 5615 5613 5610 5608 5605 5602 5600 5597 5595 5592 5588 5585 5582 5579 5576 5575 5574 5573 5572 5572 5572 5572 5573 5573 5575 5577 5578 5580 5582 5584 5586 5588 5591 5595 5598 5601 5605 5608 5612 5615 5619 5624 5628 5631 5635 5639 5643 5646 5649 5653 5657 5661 5666 5670 5674 5678 5681 5685
5664 5663 5661 5660 5659 5657 5656 5655 5653 5651 5650 5648 5646 5645 5643 5642 5641 5640 5638 5636 5635 5632 5629 5626 5623 5620 5617 5616 5614 5612 5609 5606 5603 5601 5599 5597 5595 5592 5588 5585 5582 5578 5575 5574 5573 5571 5571 5571 5572 5572 5572 5572 5573 5575 5577 5578 5579 5581 5583 5585 5588 5591 5594 5597 5601 5604 5608 5611 5615 5618 5622 5626 5630 5634 5638 5641 5644 5647 5650 5654 5658 5663 5667 5672 5675 5679
5662 5661 5660 5658 5657 5655 5654 5653 5651 5650 5648 5646 5645 5644 5642 5640 5640 5639 5637 5634 5632 5630 5627 5623 5621 5619 5616 5614 5612 5610 5608 5606 5603 5601 5599 5597 5595 5592 5589 5585 5582 5579 5576 5574 5572 5570 5570 5571 5572 5572 5572 5572 5572 5573 5574 5576 5577 5579 5580 5582 5584 5587 5590 5593 5596 5599 5603 5606 5610 5613 5617 5620 5624 5627 5631 5635 5638 5641 5644 5647 5651 5656 5661 5665 5669 5673
5660 5659 5658 5657 5655 5654 5652 5651 5650 5648 5647 5646 5644 5642 5641 5639 5638 5637 5636 5633 5630 5627 5625 5622 5620 5618 5616 5614 5611 5609 5607 5606 5603 5600 5598 5597 5595 5592 5589 5586 5583 5581 5577 5574 5572 5570 5570 5570 5571 5572 5572 5572 5572 5572 5572 5573 5575 5576 5578 5579 5581 5583 5586 5589 5592 5595 5598 5602 5605 5608 5612 5615 5618 5621 5625 5628 5632 5636 5639 5642 5645 5649 5653 5658 5662 5666
5659 5657 5656 5655 5654 5652 5651 5650 5648 5647 5646 5644 5643 5641 5639 5637 5636 5635 5633 5631 5628 5626 5624 5622 5619 5617 5616 5613 5611 5609 5607 5605 5604 5601 5598 5596 5595 5592 5590 5587 5584 5581 5578 5575 5573 5571 5570 5570 5571 5571 5571 5571 5571 5571 5571 5571 5572 5573 5575 5576 5578 5580 5583 5586 5588 5591 5594 5597 5600 5603 5607 5610 5612 5616 5619 5622 5625 5629 5634 5637 5639 5642 5646 5651 5656 5660
5658 5656 5655 5654 5653 5651 5650 5648 5646 5645 5643 5642 5641 5639 5636 5635 5633 5632 5630 5628 5626 5624 5623 5621 5619 5616 5614 5612 5610 5608 5606 5604 5603 5601 5597 5595 5594 5592 5589 5587 5585 5582 5579 5577 5574 5572 5571 5571 5570 5570 5570 5570 5570 5570 5570 5570 5570 5571 5572 5573 5575 5577 5579 5581 5584 5587 5590 5593 5595 5598 5601 5604 5607 5610 5614 5617 5620 5623 5628 5632 5635 5637 5640 5644 5648 5653
5657 5655 5654 5653 5651 5650 5648 5646 5644 5643 5641 5640 5638 5637 5634 5633 5631 5629 5627 5626 5624 5622 5621 5620 5618 5615 5613 5612 5610 5608 5606 5603 5602 5600 5597 5594 5593 5592 5589 5587 5586 5583 5580 5578 5576 5574 5573 5572 5571 5570 5568 5568 5568 5569 5569 5569 5569 5569 5569 5570 5571 5573 5575 5577 5579 5582 5584 5587 5590 5592 5595 5598 5602 5606 5609 5612 5614 5618 5622 5626 5629 5632 5634 5637 5642 5647
5656 5654 5652 5651 5649 5648 5646 5644 5642 5641 5639 5638 5636 5635 5633 5631 5629 5627 5625 5624 5623 5621 5620 5619 5617 5615 5612 5610 5609 5607 5605 5603 5601 5599 5597 5594 5592 5592 5590 5587 5585 5583 5581 5578 5576 5575 5574 5573 5572 5571 5569 5567 5566 5566 5566 5566 5566 5567 5567 5567 5568 5569 5570 5572 5573 5575 5578 5580 5583 5586 5589 5592 5596 5599 5603 5606 5609 5613 5617 5620 5624 5627 5629 5632 5636 5641
5654 5652 5651 5650 5648 5646 5644 5642 5640 5639 5638 5636 5634 5633 5631 5629 5627 5625 5624 5623 5621 5620 5618 5617 5616 5614 5612 5610 5608 5606 5604 5602 5600 5598 5596 5594 5592 5590 5589 5587 5585 5583 5581 5579 5577 5575 5574 5572 5571 5571 5569 5568 5566 5565 5564 5563 5563 5564 5564 5564 5565 5565 5566 5567 5568 5569 5571 5573 5576 5579 5581 5584 5588 5592 5596 5600 5604 5608 5612 5616 5619 5622 5625 5628 5631 5635
5652 5650 5649 5648 5646 5644 5641 5640 5638 5637 5636 5634 5633 5631 5629 5628 5626 5624 5623 5622 5620 5618 5616 5615 5613 5613 5611 5610 5608 5605 5603 5601 5599 5597 5596 5594 5592 5590 5587 5585 5583 5582 5580 5578 5577 5575 5573 5572 5571 5570 5568 5567 5566 5564 5563 5561 5560 5561 5561 5561 5562 5562 5562 5562 5563 5564 5565 5567 5569 5571 5574 5577 5581 5585 5589 5594 5598 5603 5607 5611 5614 5617 5620 5623 5626 5629
5650 5648 5647 5645 5644 5642 5639 5638 5636 5635 5634 5632 5631 5629 5627 5626 5625 5623 5622 5621 5619 5617 5616 5614 5612 5611 5610 5608 5607 5605 5603 5601 5599 5597 5595 5594 5593 5590 5587 5584 5582 5580 5579 5577 5575 5574 5572 5571 5570 5569 5567 5566 5564 5563 5562 5560 5559 5559 5559 5559 5558 5558 5558 5558 5558 5559 5560 5562 5563 5565 5568 5572 5576 5581 5585 5589 5594 5598 5602 5606 5608 5611 5614 5618 5620 5623
5648 5646 5645 5643 5642 5640 5638 5636 5635 5633 5632 5630 5629 5627 5626 5624 5623 5622 5621 5620 5618 5616 5615 5613 5612 5610 5608 5607 5606 5605 5603 5601 5599 5597 5595 5593 5592 5589 5587 5584 5582 5580 5578 5576 5574 5573 5572 5570 5569 5567 5566 5565 5563 5562 5560 5559 5557 5556 5556 5556 5555 5554 5553 5554 5555 5556 5556 5558 5559 5561 5564 5568 5572 5576 5580 5584 5589 5592 5596 5600 5603 5606 5609 5612 5615 5616